Time,TemperatureF,DewpointF,PressureIn,WindDirection,WindDirectionDegrees,WindSpeedMPH,WindSpeedGustMPH,Humidity,HourlyPrecipIn,Conditions,Clouds,dailyrainin,SoftwareType,DateUTC
2013-12-07 00:00:00,-0.3,-9.9,30.95,ENE,57,1.0,1.0,63,0.00,,,0.00,Wunderground v.1.15,2013-12-07 06:00:00,
2013-12-07 00:05:00,-0.4,-10.0,30.95,ENE,60,2.0,2.0,63,0.00,,,0.00,Wunderground v.1.15,2013-12-07 06:05:00,
2013-12-07 00:15:00,-0.7,-10.0,30.95,ESE,109,2.0,3.0,64,0.00,,,0.00,Wunderground v.1.15,2013-12-07 06:15:00,
2013-12-07 00:20:00,-0.8,-10.1,30.95,ESE,109,2.0,2.0,64,0.00,,,0.00,Wunderground v.1.15,2013-12-07 06:20:00,
2013-12-07 00:30:00,-0.9,-10.2,30.95,ESE,109,1.0,1.0,64,0.00,,,0.00,Wunderground v.1.15,2013-12-07 06:30:00,
2013-12-07 00:40:00,-1.0,-10.3,30.95,ESE,109,2.0,2.0,64,0.00,,,0.00,Wunderground v.1.15,2013-12-07 06:40:00,
2013-12-07 00:50:00,-1.2,-10.1,30.94,ESE,109,2.0,2.0,65,0.00,,,0.00,Wunderground v.1.15,2013-12-07 06:50:00,
2013-12-07 00:55:00,-1.3,-10.2,30.94,ESE,108,2.0,2.0,65,0.00,,,0.00,Wunderground v.1.15,2013-12-07 06:55:00,
2013-12-07 01:05:00,-1.6,-10.5,30.94,ESE,107,2.0,3.0,65,0.00,,,0.00,Wunderground v.1.15,2013-12-07 07:05:00,
2013-12-07 01:15:00,-1.9,-10.5,30.94,ESE,106,2.0,2.0,66,0.00,,,0.00,Wunderground v.1.15,2013-12-07 07:15:00,
2013-12-07 01:20:00,-1.9,-10.5,30.94,ESE,106,2.0,2.0,66,0.00,,,0.00,Wunderground v.1.15,2013-12-07 07:20:00,
2013-12-07 01:30:00,-1.8,-10.4,30.94,East,101,2.0,2.0,66,0.00,,,0.00,Wunderground v.1.15,2013-12-07 07:30:00,
2013-12-07 01:35:00,-1.8,-10.7,30.94,East,101,2.0,2.0,65,0.00,,,0.00,Wunderground v.1.15,2013-12-07 07:35:00,
2013-12-07 01:45:00,-1.9,-10.5,30.94,East,101,2.0,2.0,66,0.00,,,0.00,Wunderground v.1.15,2013-12-07 07:45:00,
2013-12-07 01:55:00,-2.3,-10.6,30.94,East,101,1.0,2.0,67,0.00,,,0.00,Wunderground v.1.15,2013-12-07 07:55:00,
2013-12-07 02:00:00,-2.4,-10.7,30.94,East,101,1.0,2.0,67,0.00,,,0.00,Wunderground v.1.15,2013-12-07 08:00:00,
2013-12-07 02:05:00,-2.5,-10.8,30.94,East,101,1.0,2.0,67,0.00,,,0.00,Wunderground v.1.15,2013-12-07 08:05:00,
2013-12-07 02:15:00,-2.5,-10.8,30.94,East,101,1.0,2.0,67,0.00,,,0.00,Wunderground v.1.15,2013-12-07 08:15:00,
2013-12-07 02:25:00,-2.4,-10.7,30.94,East,101,2.0,2.0,67,0.00,,,0.00,Wunderground v.1.15,2013-12-07 08:25:00,
2013-12-07 02:35:00,-2.5,-10.8,30.94,East,101,2.0,2.0,67,0.00,,,0.00,Wunderground v.1.15,2013-12-07 08:35:00,
2013-12-07 02:45:00,-2.4,-10.7,30.93,East,101,2.0,2.0,67,0.00,,,0.00,Wunderground v.1.15,2013-12-07 08:45:00,
2013-12-07 02:55:00,-2.3,-10.6,30.93,ESE,102,2.0,3.0,67,0.00,,,0.00,Wunderground v.1.15,2013-12-07 08:55:00,
2013-12-07 03:00:00,-2.4,-11.0,30.93,ESE,103,2.0,3.0,66,0.00,,,0.00,Wunderground v.1.15,2013-12-07 09:00:00,
2013-12-07 03:10:00,-2.5,-10.8,30.93,ESE,104,2.0,3.0,67,0.00,,,0.00,Wunderground v.1.15,2013-12-07 09:10:00,
2013-12-07 03:15:00,-2.7,-11.3,30.93,East,93,2.0,3.0,66,0.00,,,0.00,Wunderground v.1.15,2013-12-07 09:15:00,
2013-12-07 03:25:00,-3.0,-11.2,30.93,East,93,1.0,3.0,67,0.00,,,0.00,Wunderground v.1.15,2013-12-07 09:25:00,
2013-12-07 03:35:00,-3.2,-11.1,30.93,East,93,2.0,2.0,68,0.00,,,0.00,Wunderground v.1.15,2013-12-07 09:35:00,
2013-12-07 03:40:00,-3.3,-11.2,30.93,East,93,2.0,2.0,68,0.00,,,0.00,Wunderground v.1.15,2013-12-07 09:40:00,
2013-12-07 03:50:00,-3.2,-10.8,30.93,East,93,2.0,2.0,69,0.00,,,0.00,Wunderground v.1.15,2013-12-07 09:50:00,
2013-12-07 03:55:00,-3.3,-10.9,30.93,East,93,2.0,3.0,69,0.00,,,0.00,Wunderground v.1.15,2013-12-07 09:55:00,
2013-12-07 04:05:00,-3.1,-10.7,30.93,East,93,2.0,2.0,69,0.00,,,0.00,Wunderground v.1.15,2013-12-07 10:05:00,
2013-12-07 04:15:00,-3.2,-10.8,30.92,East,93,2.0,2.0,69,0.00,,,0.00,Wunderground v.1.15,2013-12-07 10:15:00,
2013-12-07 04:20:00,-3.2,-11.1,30.92,East,93,2.0,2.0,68,0.00,,,0.00,Wunderground v.1.15,2013-12-07 10:20:00,
2013-12-07 04:25:00,-3.2,-10.8,30.92,East,94,2.0,2.0,69,0.00,,,0.00,Wunderground v.1.15,2013-12-07 10:25:00,
2013-12-07 04:35:00,-3.3,-10.9,30.92,East,94,2.0,2.0,69,0.00,,,0.00,Wunderground v.1.15,2013-12-07 10:35:00,
2013-12-07 04:40:00,-3.4,-11.3,30.92,East,94,2.0,2.0,68,0.00,,,0.00,Wunderground v.1.15,2013-12-07 10:40:00,
2013-12-07 04:50:00,-3.4,-11.0,30.92,ESE,103,3.0,3.0,69,0.00,,,0.00,Wunderground v.1.15,2013-12-07 10:50:00,
2013-12-07 05:00:00,-3.1,-10.5,30.92,ESE,107,2.0,3.0,70,0.00,,,0.00,Wunderground v.1.15,2013-12-07 11:00:00,
2013-12-07 05:05:00,-3.0,-10.4,30.92,ESE,109,2.0,3.0,70,0.00,,,0.00,Wunderground v.1.15,2013-12-07 11:05:00,
2013-12-07 05:15:00,-3.0,-10.4,30.92,ESE,109,2.0,2.0,70,0.00,,,0.00,Wunderground v.1.15,2013-12-07 11:15:00,
2013-12-07 05:20:00,-3.0,-10.7,30.92,ESE,109,2.0,2.0,69,0.00,,,0.00,Wunderground v.1.15,2013-12-07 11:20:00,
2013-12-07 05:30:00,-3.1,-10.7,30.92,ESE,107,2.0,2.0,69,0.00,,,0.00,Wunderground v.1.15,2013-12-07 11:30:00,
2013-12-07 05:35:00,-3.1,-10.5,30.92,ESE,107,2.0,2.0,70,0.00,,,0.00,Wunderground v.1.15,2013-12-07 11:35:00,
2013-12-07 05:45:00,-2.8,-10.2,30.92,ESE,105,3.0,3.0,70,0.00,,,0.00,Wunderground v.1.15,2013-12-07 11:45:00,
2013-12-07 05:50:00,-2.6,-10.0,30.92,ESE,110,3.0,3.0,70,0.00,,,0.00,Wunderground v.1.15,2013-12-07 11:50:00,
2013-12-07 06:00:00,-2.3,-9.7,30.92,ESE,105,3.0,3.0,70,0.00,,,0.00,Wunderground v.1.15,2013-12-07 12:00:00,
2013-12-07 06:10:00,-2.2,-9.9,30.92,ESE,113,4.0,5.0,69,0.00,,,0.00,Wunderground v.1.15,2013-12-07 12:10:00,
2013-12-07 06:15:00,-2.1,-9.8,30.92,ESE,111,4.0,5.0,69,0.00,,,0.00,Wunderground v.1.15,2013-12-07 12:15:00,
2013-12-07 06:25:00,-1.8,-9.8,30.92,ESE,105,4.0,5.0,68,0.00,,,0.00,Wunderground v.1.15,2013-12-07 12:25:00,
2013-12-07 06:35:00,-1.7,-9.4,30.93,East,98,4.0,6.0,69,0.00,,,0.00,Wunderground v.1.15,2013-12-07 12:35:00,
2013-12-07 06:40:00,-1.7,-9.7,30.92,East,90,4.0,5.0,68,0.00,,,0.00,Wunderground v.1.15,2013-12-07 12:40:00,
2013-12-07 06:50:00,-1.6,-9.6,30.92,ESE,105,4.0,4.0,68,0.00,,,0.00,Wunderground v.1.15,2013-12-07 12:50:00,
2013-12-07 06:55:00,-1.7,-9.7,30.93,ESE,112,4.0,4.0,68,0.00,,,0.00,Wunderground v.1.15,2013-12-07 12:55:00,
2013-12-07 07:05:00,-1.5,-9.2,30.93,East,100,4.0,4.0,69,0.00,,,0.00,Wunderground v.1.15,2013-12-07 13:05:00,
2013-12-07 07:10:00,-1.3,-8.7,30.93,ESE,107,3.0,3.0,70,0.00,,,0.00,Wunderground v.1.15,2013-12-07 13:10:00,
2013-12-07 07:15:00,-1.3,-9.0,30.93,ESE,105,3.0,4.0,69,0.00,,,0.00,Wunderground v.1.15,2013-12-07 13:15:00,
2013-12-07 07:25:00,-1.3,-8.7,30.92,East,98,4.0,4.0,70,0.00,,,0.00,Wunderground v.1.15,2013-12-07 13:25:00,
2013-12-07 07:35:00,-1.2,-8.6,30.92,East,101,3.0,6.0,70,0.00,,,0.00,Wunderground v.1.15,2013-12-07 13:35:00,
2013-12-07 07:45:00,-1.0,-8.7,30.93,East,96,3.0,3.0,69,0.00,,,0.00,Wunderground v.1.15,2013-12-07 13:45:00,
2013-12-07 07:50:00,-1.1,-8.8,30.93,ESE,103,4.0,4.0,69,0.00,,,0.00,Wunderground v.1.15,2013-12-07 13:50:00,
2013-12-07 08:00:00,-1.1,-8.5,30.93,ESE,104,4.0,4.0,70,0.00,,,0.00,Wunderground v.1.15,2013-12-07 14:00:00,
2013-12-07 08:10:00,-0.9,-8.3,30.92,East,96,3.0,5.0,70,0.00,,,0.00,Wunderground v.1.15,2013-12-07 14:10:00,
2013-12-07 08:25:00,-0.7,-8.1,30.93,ESE,109,3.0,4.0,70,0.00,,,0.00,Wunderground v.1.15,2013-12-07 14:25:00,
2013-12-07 08:30:00,-0.6,-8.0,30.93,SE,128,3.0,3.0,70,0.00,,,0.00,Wunderground v.1.15,2013-12-07 14:30:00,
2013-12-07 08:35:00,-0.6,-8.0,30.93,SE,124,4.0,4.0,70,0.00,,,0.00,Wunderground v.1.15,2013-12-07 14:35:00,
2013-12-07 08:45:00,-0.4,-7.6,30.92,SE,140,3.0,4.0,71,0.00,,,0.00,Wunderground v.1.15,2013-12-07 14:45:00,
2013-12-07 08:55:00,-0.3,-7.5,30.93,SE,133,3.0,3.0,71,0.00,,,0.00,Wunderground v.1.15,2013-12-07 14:55:00,
2013-12-07 09:05:00,0.1,-7.4,30.92,SE,142,3.0,5.0,70,0.00,,,0.00,Wunderground v.1.15,2013-12-07 15:05:00,
2013-12-07 09:10:00,0.1,-7.4,30.93,SE,144,4.0,4.0,70,0.00,,,0.00,Wunderground v.1.15,2013-12-07 15:10:00,
2013-12-07 09:15:00,0.3,-6.9,30.93,SSE,153,4.0,4.0,71,0.00,,,0.00,Wunderground v.1.15,2013-12-07 15:15:00,
2013-12-07 09:25:00,0.8,-6.4,30.93,SSE,150,4.0,4.0,71,0.00,,,0.00,Wunderground v.1.15,2013-12-07 15:25:00,
2013-12-07 09:30:00,1.0,-6.5,30.93,SE,134,4.0,4.0,70,0.00,,,0.00,Wunderground v.1.15,2013-12-07 15:30:00,
2013-12-07 09:35:00,1.3,-5.9,30.92,SE,130,4.0,4.0,71,0.00,,,0.00,Wunderground v.1.15,2013-12-07 15:35:00,
2013-12-07 09:40:00,1.3,-6.5,30.92,SE,132,4.0,4.0,69,0.00,,,0.00,Wunderground v.1.15,2013-12-07 15:40:00,
2013-12-07 09:50:00,1.7,-6.1,30.92,SSE,153,5.0,5.0,69,0.00,,,0.00,Wunderground v.1.15,2013-12-07 15:50:00,
2013-12-07 09:55:00,1.7,-6.4,30.92,ESE,119,5.0,7.0,68,0.00,,,0.00,Wunderground v.1.15,2013-12-07 15:55:00,
2013-12-07 10:05:00,2.2,-6.0,30.92,SE,131,5.0,6.0,68,0.00,,,0.00,Wunderground v.1.15,2013-12-07 16:05:00,
2013-12-07 10:15:00,2.7,-6.1,30.92,SE,144,5.0,7.0,66,0.00,,,0.00,Wunderground v.1.15,2013-12-07 16:15:00,
2013-12-07 10:25:00,3.0,-6.1,30.91,SSE,156,6.0,9.0,65,0.00,,,0.00,Wunderground v.1.15,2013-12-07 16:25:00,
2013-12-07 10:30:00,3.3,-5.8,30.92,SSE,159,5.0,8.0,65,0.00,,,0.00,Wunderground v.1.15,2013-12-07 16:30:00,
2013-12-07 10:40:00,3.4,-6.4,30.91,SE,134,7.0,7.0,63,0.00,,,0.00,Wunderground v.1.15,2013-12-07 16:40:00,
2013-12-07 10:45:00,3.7,-5.8,30.91,SSE,159,6.0,7.0,64,0.00,,,0.00,Wunderground v.1.15,2013-12-07 16:45:00,
2013-12-07 10:55:00,3.8,-6.7,30.91,SSE,149,6.0,7.0,61,0.00,,,0.00,Wunderground v.1.15,2013-12-07 16:55:00,
2013-12-07 11:00:00,4.0,-6.1,30.91,SSE,153,7.0,9.0,62,0.00,,,0.00,Wunderground v.1.15,2013-12-07 17:00:00,
2013-12-07 11:05:00,4.0,-6.5,30.91,SSE,161,6.0,9.0,61,0.00,,,0.00,Wunderground v.1.15,2013-12-07 17:05:00,
2013-12-07 11:15:00,4.3,-6.2,30.90,SSE,148,6.0,6.0,61,0.00,,,0.00,Wunderground v.1.15,2013-12-07 17:15:00,
2013-12-07 11:20:00,4.4,-6.1,30.90,SE,131,6.0,6.0,61,0.00,,,0.00,Wunderground v.1.15,2013-12-07 17:20:00,
2013-12-07 11:30:00,4.8,-5.7,30.89,SE,138,5.0,5.0,61,0.00,,,0.00,Wunderground v.1.15,2013-12-07 17:30:00,
2013-12-07 11:40:00,5.1,-5.8,30.88,ESE,103,6.0,6.0,60,0.00,,,0.00,Wunderground v.1.15,2013-12-07 17:40:00,
2013-12-07 11:50:00,5.4,-5.8,30.88,SSE,165,6.0,6.0,59,0.00,,,0.00,Wunderground v.1.15,2013-12-07 17:50:00,
2013-12-07 12:00:00,5.7,-5.6,30.87,SE,135,6.0,6.0,59,0.00,,,0.00,Wunderground v.1.15,2013-12-07 18:00:00,
2013-12-07 12:05:00,5.6,-6.0,30.86,SSE,158,6.0,6.0,58,0.00,,,0.00,Wunderground v.1.15,2013-12-07 18:05:00,
2013-12-07 12:15:00,5.8,-5.8,30.86,SE,146,6.0,6.0,58,0.00,,,0.00,Wunderground v.1.15,2013-12-07 18:15:00,
2013-12-07 12:20:00,5.9,-6.1,30.85,South,181,6.0,7.0,57,0.00,,,0.00,Wunderground v.1.15,2013-12-07 18:20:00,
2013-12-07 12:30:00,5.9,-5.7,30.84,SE,132,6.0,6.0,58,0.00,,,0.00,Wunderground v.1.15,2013-12-07 18:30:00,
2013-12-07 12:40:00,6.7,-5.3,30.83,SSE,155,6.0,6.0,57,0.00,,,0.00,Wunderground v.1.15,2013-12-07 18:40:00,
2013-12-07 12:45:00,6.8,-5.2,30.83,SE,144,6.0,6.0,57,0.00,,,0.00,Wunderground v.1.15,2013-12-07 18:45:00,
2013-12-07 12:55:00,6.6,-5.8,30.82,SE,129,7.0,12.0,56,0.00,,,0.00,Wunderground v.1.15,2013-12-07 18:55:00,
2013-12-07 13:05:00,6.9,-5.5,30.81,SE,145,7.0,7.0,56,0.00,,,0.00,Wunderground v.1.15,2013-12-07 19:05:00,
2013-12-07 13:10:00,7.2,-4.9,30.81,SSE,167,6.0,6.0,57,0.00,,,0.00,Wunderground v.1.15,2013-12-07 19:10:00,
2013-12-07 13:15:00,7.5,-3.9,30.80,SE,133,5.0,8.0,59,0.00,,,0.00,Wunderground v.1.15,2013-12-07 19:15:00,
2013-12-07 13:20:00,7.0,-4.3,30.80,SE,131,6.0,6.0,59,0.00,,,0.00,Wunderground v.1.15,2013-12-07 19:20:00,
2013-12-07 13:30:00,6.6,-3.0,30.79,ESE,115,7.0,8.0,64,0.00,,,0.00,Wunderground v.1.15,2013-12-07 19:30:00,
2013-12-07 13:40:00,6.1,-2.2,30.78,ESE,122,8.0,8.0,68,0.00,,,0.00,Wunderground v.1.15,2013-12-07 19:40:00,
2013-12-07 13:50:00,6.3,-1.7,30.77,SE,139,6.0,6.0,69,0.00,,,0.00,Wunderground v.1.15,2013-12-07 19:50:00,
2013-12-07 14:00:00,6.1,-1.9,30.76,ESE,121,6.0,8.0,69,0.00,,,0.00,Wunderground v.1.15,2013-12-07 20:00:00,
2013-12-07 14:05:00,6.3,-1.1,30.75,ESE,122,6.0,8.0,71,0.00,,,0.00,Wunderground v.1.15,2013-12-07 20:05:00,
2013-12-07 14:10:00,6.5,-1.2,30.75,SE,130,5.0,5.0,70,0.00,,,0.00,Wunderground v.1.15,2013-12-07 20:10:00,
2013-12-07 14:20:00,6.5,-1.5,30.73,SSE,147,6.0,7.0,69,0.00,,,0.00,Wunderground v.1.15,2013-12-07 20:20:00,
2013-12-07 14:30:00,6.7,-2.6,30.73,ESE,116,6.0,6.0,65,0.00,,,0.00,Wunderground v.1.15,2013-12-07 20:30:00,
2013-12-07 14:35:00,6.9,-2.7,30.72,ESE,110,7.0,7.0,64,0.00,,,0.00,Wunderground v.1.15,2013-12-07 20:35:00,
2013-12-07 14:45:00,7.2,-2.8,30.71,SE,130,6.0,8.0,63,0.00,,,0.00,Wunderground v.1.15,2013-12-07 20:45:00,
2013-12-07 14:55:00,7.4,-3.3,30.71,ESE,120,5.0,6.0,61,0.00,,,0.00,Wunderground v.1.15,2013-12-07 20:55:00,
2013-12-07 15:00:00,7.6,-3.1,30.71,ESE,118,5.0,5.0,61,0.00,,,0.00,Wunderground v.1.15,2013-12-07 21:00:00,
2013-12-07 15:10:00,7.8,-3.9,30.71,SSE,150,6.0,6.0,58,0.00,,,0.00,Wunderground v.1.15,2013-12-07 21:10:00,
2013-12-07 15:15:00,7.9,-4.6,30.70,SE,124,7.0,7.0,56,0.00,,,0.00,Wunderground v.1.15,2013-12-07 21:15:00,
2013-12-07 15:25:00,8.1,-4.4,30.69,ESE,119,7.0,8.0,56,0.00,,,0.00,Wunderground v.1.15,2013-12-07 21:25:00,
2013-12-07 15:30:00,8.3,-5.0,30.69,SE,127,7.0,9.0,54,0.00,,,0.00,Wunderground v.1.15,2013-12-07 21:30:00,
2013-12-07 15:35:00,8.2,-5.0,30.69,SE,132,7.0,9.0,54,0.00,,,0.00,Wunderground v.1.15,2013-12-07 21:35:00,
2013-12-07 15:45:00,8.3,-5.0,30.69,SE,141,6.0,7.0,54,0.00,,,0.00,Wunderground v.1.15,2013-12-07 21:45:00,
2013-12-07 15:55:00,8.3,-5.0,30.68,SE,127,7.0,9.0,54,0.00,,,0.00,Wunderground v.1.15,2013-12-07 21:55:00,
2013-12-07 16:05:00,8.4,-4.5,30.68,SE,128,6.0,7.0,55,0.00,,,0.00,Wunderground v.1.15,2013-12-07 22:05:00,
2013-12-07 16:10:00,8.3,-4.6,30.68,SE,141,6.0,6.0,55,0.00,,,0.00,Wunderground v.1.15,2013-12-07 22:10:00,
2013-12-07 16:15:00,8.3,-4.6,30.68,SE,145,6.0,6.0,55,0.00,,,0.00,Wunderground v.1.15,2013-12-07 22:15:00,
2013-12-07 16:25:00,8.2,-4.3,30.68,ESE,121,6.0,7.0,56,0.00,,,0.00,Wunderground v.1.15,2013-12-07 22:25:00,
2013-12-07 16:30:00,8.1,-4.8,30.67,ESE,111,6.0,6.0,55,0.00,,,0.00,Wunderground v.1.15,2013-12-07 22:30:00,
2013-12-07 16:35:00,8.2,-4.7,30.67,ESE,107,7.0,7.0,55,0.00,,,0.00,Wunderground v.1.15,2013-12-07 22:35:00,
2013-12-07 16:45:00,8.5,-4.4,30.67,ESE,115,6.0,8.0,55,0.00,,,0.00,Wunderground v.1.15,2013-12-07 22:45:00,
2013-12-07 16:50:00,8.4,-4.9,30.67,ESE,111,7.0,7.0,54,0.00,,,0.00,Wunderground v.1.15,2013-12-07 22:50:00,
2013-12-07 17:00:00,8.6,-3.9,30.67,SE,142,6.0,7.0,56,0.00,,,0.00,Wunderground v.1.15,2013-12-07 23:00:00,
2013-12-07 17:05:00,8.5,-3.6,30.68,SSE,148,6.0,8.0,57,0.00,,,0.00,Wunderground v.1.15,2013-12-07 23:05:00,
2013-12-07 17:10:00,8.4,-2.7,30.68,ESE,109,6.0,7.0,60,0.00,,,0.00,Wunderground v.1.15,2013-12-07 23:10:00,
2013-12-07 17:20:00,8.3,-2.1,30.67,ESE,111,6.0,8.0,62,0.00,,,0.00,Wunderground v.1.15,2013-12-07 23:20:00,
2013-12-07 17:30:00,8.4,-2.0,30.66,ESE,109,6.0,6.0,62,0.00,,,0.00,Wunderground v.1.15,2013-12-07 23:30:00,
2013-12-07 17:40:00,8.8,-1.2,30.66,ESE,121,6.0,7.0,63,0.00,,,0.00,Wunderground v.1.15,2013-12-07 23:40:00,
2013-12-07 17:45:00,8.9,-1.5,30.66,ESE,112,5.0,7.0,62,0.00,,,0.00,Wunderground v.1.15,2013-12-07 23:45:00,
2013-12-07 17:50:00,9.0,-1.4,30.66,ESE,118,6.0,10.0,62,0.00,,,0.00,Wunderground v.1.15,2013-12-07 23:50:00,
2013-12-07 17:55:00,9.2,-1.2,30.66,SE,134,7.0,10.0,62,0.00,,,0.00,Wunderground v.1.15,2013-12-07 23:55:00,
2013-12-07 18:00:00,9.3,-1.1,30.66,ESE,119,6.0,9.0,62,0.00,,,0.00,Wunderground v.1.15,2013-12-08 00:00:00,
2013-12-07 18:10:00,9.6,-1.5,30.65,ESE,119,6.0,8.0,60,0.00,,,0.00,Wunderground v.1.15,2013-12-08 00:10:00,
2013-12-07 18:20:00,9.9,-2.3,30.65,ESE,120,7.0,8.0,57,0.00,,,0.00,Wunderground v.1.15,2013-12-08 00:20:00,
2013-12-07 18:30:00,9.9,-3.5,30.66,SE,129,8.0,8.0,54,0.00,,,0.00,Wunderground v.1.15,2013-12-08 00:30:00,
2013-12-07 18:35:00,9.9,-3.5,30.66,SE,142,7.0,9.0,54,0.00,,,0.00,Wunderground v.1.15,2013-12-08 00:35:00,
2013-12-07 18:45:00,9.8,-3.5,30.65,SE,130,7.0,13.0,54,0.00,,,0.00,Wunderground v.1.15,2013-12-08 00:45:00,
2013-12-07 18:55:00,9.9,-3.1,30.65,SSE,155,8.0,13.0,55,0.00,,,0.00,Wunderground v.1.15,2013-12-08 00:55:00,
2013-12-07 19:05:00,9.9,-3.1,30.65,SE,124,7.0,9.0,55,0.00,,,0.00,Wunderground v.1.15,2013-12-08 01:05:00,
2013-12-07 19:15:00,9.8,-2.8,30.64,ESE,115,8.0,10.0,56,0.00,,,0.00,Wunderground v.1.15,2013-12-08 01:15:00,
2013-12-07 19:25:00,9.6,-2.2,30.64,ESE,121,9.0,10.0,58,0.00,,,0.00,Wunderground v.1.15,2013-12-08 01:25:00,
2013-12-07 19:30:00,9.5,-1.6,30.64,ESE,115,9.0,9.0,60,0.00,,,0.00,Wunderground v.1.15,2013-12-08 01:30:00,
2013-12-07 19:40:00,9.4,-1.0,30.64,ESE,123,8.0,11.0,62,0.00,,,0.00,Wunderground v.1.15,2013-12-08 01:40:00,
2013-12-07 19:50:00,9.3,-0.1,30.64,ESE,112,7.0,7.0,65,0.00,,,0.00,Wunderground v.1.15,2013-12-08 01:50:00,
2013-12-07 19:55:00,9.2,-0.2,30.64,ESE,103,7.0,8.0,65,0.00,,,0.00,Wunderground v.1.15,2013-12-08 01:55:00,
2013-12-07 20:05:00,9.1,0.4,30.63,ESE,119,8.0,10.0,67,0.00,,,0.00,Wunderground v.1.15,2013-12-08 02:05:00,
2013-12-07 20:15:00,8.9,0.8,30.63,ESE,123,9.0,9.0,69,0.00,,,0.00,Wunderground v.1.15,2013-12-08 02:15:00,
2013-12-07 20:20:00,8.9,0.8,30.63,ESE,119,8.0,10.0,69,0.00,,,0.00,Wunderground v.1.15,2013-12-08 02:20:00,
2013-12-07 20:30:00,8.9,1.7,30.62,ESE,119,9.0,9.0,72,0.00,,,0.00,Wunderground v.1.15,2013-12-08 02:30:00,
2013-12-07 20:40:00,8.9,2.3,30.62,ESE,105,9.0,9.0,74,0.00,,,0.00,Wunderground v.1.15,2013-12-08 02:40:00,
2013-12-07 20:50:00,9.0,3.0,30.62,ESE,117,9.0,9.0,76,0.00,,,0.00,Wunderground v.1.15,2013-12-08 02:50:00,
2013-12-07 20:55:00,9.0,3.0,30.62,ESE,108,8.0,10.0,76,0.00,,,0.00,Wunderground v.1.15,2013-12-08 02:55:00,
2013-12-07 21:00:00,9.1,3.4,30.62,ESE,105,8.0,8.0,77,0.00,,,0.00,Wunderground v.1.15,2013-12-08 03:00:00,
2013-12-07 22:15:00,9.1,3.4,30.58,ESE,117,8.0,15.0,77,0.00,,,0.00,Wunderground v.1.15,2013-12-08 04:15:00,
2013-12-07 22:20:00,9.1,3.6,30.58,ESE,118,8.0,8.0,78,0.00,,,0.00,Wunderground v.1.15,2013-12-08 04:20:00,
2013-12-07 22:30:00,9.2,3.4,30.57,ESE,123,8.0,11.0,77,0.00,,,0.00,Wunderground v.1.15,2013-12-08 04:30:00,
2013-12-07 22:40:00,9.2,3.4,30.57,ESE,111,8.0,14.0,77,0.00,,,0.00,Wunderground v.1.15,2013-12-08 04:40:00,
2013-12-07 22:50:00,9.2,3.2,30.56,SE,132,9.0,12.0,76,0.00,,,0.00,Wunderground v.1.15,2013-12-08 04:50:00,
2013-12-07 22:55:00,9.2,3.2,30.56,SE,128,7.0,12.0,76,0.00,,,0.00,Wunderground v.1.15,2013-12-08 04:55:00,
2013-12-07 23:05:00,9.2,3.2,30.56,SE,138,9.0,9.0,76,0.00,,,0.00,Wunderground v.1.15,2013-12-08 05:05:00,
2013-12-07 23:10:00,9.2,3.2,30.56,ESE,117,8.0,8.0,76,0.00,,,0.00,Wunderground v.1.15,2013-12-08 05:10:00,
2013-12-07 23:15:00,9.3,3.3,30.55,ESE,117,8.0,9.0,76,0.00,,,0.00,Wunderground v.1.15,2013-12-08 05:15:00,
2013-12-07 23:25:00,9.2,3.2,30.54,SE,128,9.0,9.0,76,0.00,,,0.00,Wunderground v.1.15,2013-12-08 05:25:00,
2013-12-07 23:30:00,9.3,3.5,30.54,SE,128,8.0,8.0,77,0.00,,,0.00,Wunderground v.1.15,2013-12-08 05:30:00,
2013-12-07 23:40:00,9.3,3.5,30.54,ESE,123,6.0,7.0,77,0.00,,,0.00,Wunderground v.1.15,2013-12-08 05:40:00,
2013-12-07 23:45:00,9.3,3.5,30.53,ESE,115,7.0,7.0,77,0.00,,,0.00,Wunderground v.1.15,2013-12-08 05:45:00,
2013-12-07 23:50:00,9.3,3.5,30.53,ESE,118,8.0,8.0,77,0.00,,,0.00,Wunderground v.1.15,2013-12-08 05:50:00,